,,,PA_Meas_PMT16A,,PR_Meas_QMR101_102,,RH_Meas_QMH101,,SR_Meas_QMS101,,TA_Meas_QMH101,,GenWind,,GenWind,
date,time,status,PA,status,PR,status,RH,status,SR,status,TA,status,DirAvg,status,SpdAvg,
2011-02-06, 00:00:04,VALID,1004.44,VALID,0,VALID,88.3653,VALID,0,VALID,26.8757,VALID,5,VALID,1.05781,
2011-02-06, 00:01:04,VALID,1004.43,VALID,0,VALID,88.5942,VALID,0,VALID,26.8973,VALID,19,VALID,0.835156,
2011-02-06, 00:02:04,VALID,1004.41,VALID,0,VALID,88.434,VALID,0,VALID,26.8583,VALID,43,VALID,0.943359,
2011-02-06, 00:03:04,VALID,1004.41,VALID,0,VALID,88.5484,VALID,0,VALID,26.8388,VALID,19,VALID,1.38789,
2011-02-06, 00:04:04,VALID,1004.4,VALID,0,VALID,88.701,VALID,0,VALID,26.8193,VALID,15,VALID,1.10234,
2011-02-06, 00:05:04,VALID,1004.38,VALID,0,VALID,88.9146,VALID,0,VALID,26.8193,VALID,28,VALID,0.964453,
2011-02-06, 00:06:04,VALID,1004.37,VALID,0,VALID,88.6705,VALID,0,VALID,26.7804,VALID,43,VALID,1.03047,
2011-02-06, 00:07:04,VALID,1004.34,VALID,0,VALID,88.4874,VALID,0,VALID,26.7589,VALID,8,VALID,1.58008,
2011-02-06, 00:08:04,VALID,1004.31,VALID,0,VALID,88.1746,VALID,0,VALID,26.8388,VALID,27,VALID,1.46055,
2011-02-06, 00:09:04,VALID,1004.29,VALID,0,VALID,88.4492,VALID,0,VALID,26.8388,VALID,23,VALID,0.921094,
2011-02-06, 00:10:04,VALID,1004.28,VALID,0,VALID,88.7315,VALID,0,VALID,26.8193,VALID,15,VALID,0.950391,
2011-02-06, 00:11:04,VALID,1004.28,VALID,0,VALID,88.9451,VALID,0,VALID,26.7804,VALID,15,VALID,0.569531,
2011-02-06, 00:12:04,VALID,1004.26,VALID,0,VALID,89.3037,VALID,0,VALID,26.7219,VALID,18,VALID,0.637109,
2011-02-06, 00:13:04,VALID,1004.23,VALID,0,VALID,89.3494,VALID,0,VALID,26.7024,VALID,15,VALID,1.49922,
2011-02-06, 00:14:04,VALID,1004.23,VALID,0,VALID,89.8911,VALID,0,VALID,26.6635,VALID,32,VALID,0.397266,
2011-02-06, 00:15:04,VALID,1004.24,VALID,0,VALID,89.38,VALID,0,VALID,26.644,VALID,6,VALID,1.45898,
2011-02-06, 00:16:04,VALID,1004.21,VALID,0,VALID,89.5859,VALID,0,VALID,26.644,VALID,356,VALID,0.924219,
2011-02-06, 00:17:04,VALID,1004.18,VALID,0,VALID,89.7004,VALID,0,VALID,26.6225,VALID,11,VALID,0.805469,
2011-02-06, 00:18:04,VALID,1004.16,VALID,0,VALID,90.0742,VALID,0,VALID,26.6245,VALID,14,VALID,1.09414,
2011-02-06, 00:19:04,VALID,1004.14,VALID,0,VALID,90.12,VALID,0,VALID,26.605,VALID,18,VALID,0.890625,
2011-02-06, 00:20:04,VALID,1004.14,VALID,0,VALID,90.4785,VALID,0,VALID,26.605,VALID,13,VALID,0.765234,
2011-02-06, 00:21:04,VALID,1004.1,VALID,0,VALID,90.7074,VALID,0,VALID,26.5855,VALID,1,VALID,0.78125,
2011-02-06, 00:22:04,VALID,1004.06,VALID,0,VALID,90.3565,VALID,0,VALID,26.5446,VALID,26,VALID,0.932813,
2011-02-06, 00:23:04,VALID,1004.03,VALID,0,VALID,90.3107,VALID,0,VALID,26.5661,VALID,16,VALID,1.4418,
2011-02-06, 00:24:04,VALID,1004.03,VALID,0,VALID,90.0055,VALID,0,VALID,26.605,VALID,1,VALID,0.928516,
2011-02-06, 00:25:04,VALID,1004.02,VALID,0,VALID,89.8606,VALID,0,VALID,26.603,VALID,17,VALID,1.11484,
2011-02-06, 00:26:04,VALID,1004,VALID,0,VALID,90.1429,VALID,0.100563,VALID,26.644,VALID,25,VALID,0.791797,
2011-02-06, 00:27:04,VALID,1003.96,VALID,0,VALID,90.3565,VALID,0,VALID,26.5835,VALID,50,VALID,0.682031,
2011-02-06, 00:28:04,VALID,1003.95,VALID,0,VALID,91.0125,VALID,0,VALID,26.5446,VALID,23,VALID,0.780078,
2011-02-06, 00:29:04,VALID,1003.93,VALID,0,VALID,90.3793,VALID,0,VALID,26.5056,VALID,15,VALID,0.926953,
2011-02-06, 00:30:04,VALID,1003.92,VALID,0,VALID,90.7226,VALID,0.100563,VALID,26.5661,VALID,13,VALID,0.867578,
2011-02-06, 00:31:04,VALID,1003.9,VALID,0,VALID,90.6158,VALID,0.100563,VALID,26.5231,VALID,16,VALID,0.73125,
2011-02-06, 00:32:04,VALID,1003.88,VALID,0,VALID,90.715,VALID,0,VALID,26.5271,VALID,15,VALID,0.880469,
2011-02-06, 00:33:04,VALID,1003.85,VALID,0,VALID,89.9521,VALID,0.100563,VALID,26.5835,VALID,31,VALID,1.54727,
2011-02-06, 00:34:04,VALID,1003.88,VALID,0,VALID,89.6851,VALID,0,VALID,26.6225,VALID,12,VALID,1.86367,
2011-02-06, 00:35:04,VALID,1003.88,VALID,0,VALID,89.38,VALID,0.100563,VALID,26.6399,VALID,30,VALID,1.57578,
2011-02-06, 00:36:04,VALID,1003.9,VALID,0,VALID,89.3266,VALID,0.100563,VALID,26.6594,VALID,22,VALID,1.07969,
2011-02-06, 00:37:04,VALID,1003.9,VALID,0,VALID,88.8002,VALID,0.100563,VALID,26.7199,VALID,23,VALID,1.7707,
2011-02-06, 00:38:04,VALID,1003.87,VALID,0,VALID,88.4035,VALID,0,VALID,26.7589,VALID,25,VALID,1.25547,
2011-02-06, 00:39:04,VALID,1003.89,VALID,0,VALID,87.9686,VALID,0,VALID,26.7978,VALID,15,VALID,0.826563,
2011-02-06, 00:40:04,VALID,1003.88,VALID,0,VALID,88.0754,VALID,0.100563,VALID,26.8173,VALID,23,VALID,0.433203,
2011-02-06, 00:41:04,VALID,1003.86,VALID,0,VALID,88.4416,VALID,0.100563,VALID,26.7783,VALID,17,VALID,0.792578,
2011-02-06, 00:42:04,VALID,1003.83,VALID,0,VALID,88.7697,VALID,0,VALID,26.7589,VALID,18,VALID,0.578125,
2011-02-06, 00:43:04,VALID,1003.83,VALID,0,VALID,88.6705,VALID,0,VALID,26.7004,VALID,6,VALID,0.785937,
2011-02-06, 00:44:04,VALID,1003.86,VALID,0,VALID,88.5713,VALID,0,VALID,26.7004,VALID,21,VALID,1.04258,
2011-02-06, 00:45:04,VALID,1003.84,VALID,0,VALID,88.6094,VALID,0,VALID,26.7004,VALID,33,VALID,0.465234,
2011-02-06, 00:46:04,VALID,1003.81,VALID,0,VALID,88.6476,VALID,0,VALID,26.683,VALID,15,VALID,1.16289,
2011-02-06, 00:47:04,VALID,1003.8,VALID,0,VALID,88.3272,VALID,0,VALID,26.6809,VALID,14,VALID,1.23438,
2011-02-06, 00:48:04,VALID,1003.8,VALID,0,VALID,88.6934,VALID,0,VALID,26.7004,VALID,29,VALID,0.807422,
2011-02-06, 00:49:04,VALID,1003.79,VALID,0,VALID,88.2204,VALID,0,VALID,26.7004,VALID,33,VALID,1.36016,
2011-02-06, 00:50:04,VALID,1003.79,VALID,0,VALID,88.0068,VALID,0,VALID,26.7783,VALID,35,VALID,0.876953,
2011-02-06, 00:51:04,VALID,1003.72,VALID,0,VALID,87.1142,VALID,0.100563,VALID,26.7394,VALID,22,VALID,1.17969,
2011-02-06, 00:52:04,VALID,1003.69,VALID,0,VALID,87.5414,VALID,0.100563,VALID,26.7179,VALID,358,VALID,0.735156,
2011-02-06, 00:53:04,VALID,1003.68,VALID,0,VALID,87.8618,VALID,0,VALID,26.7199,VALID,29,VALID,0.716016,
2011-02-06, 00:54:04,VALID,1003.67,VALID,0,VALID,87.9457,VALID,0.100563,VALID,26.7004,VALID,28,VALID,0.530859,
2011-02-06, 00:55:04,VALID,1003.65,VALID,0,VALID,88.0983,VALID,0,VALID,26.6614,VALID,20,VALID,0.936719,
2011-02-06, 00:56:04,VALID,1003.64,VALID,0,VALID,87.9152,VALID,0,VALID,26.683,VALID,10,VALID,1.96797,
2011-02-06, 00:57:04,VALID,1003.65,VALID,0,VALID,88.0907,VALID,0.100563,VALID,26.683,VALID,32,VALID,0.533984,
2011-02-06, 00:58:04,VALID,1003.6,VALID,0,VALID,87.9534,VALID,0,VALID,26.6614,VALID,9,VALID,1.04961,
2011-02-06, 00:59:04,VALID,1003.56,VALID,0,VALID,87.4346,VALID,0,VALID,26.6614,VALID,26,VALID,1.11328,
2011-02-06, 01:00:04,VALID,1003.52,VALID,0,VALID,87.1371,VALID,0,VALID,26.7219,VALID,10,VALID,1.60117,
2011-02-06, 01:01:04,VALID,1003.57,VALID,0,VALID,87.6329,VALID,0,VALID,26.7004,VALID,16,VALID,0.917969,
2011-02-06, 01:02:04,VALID,1003.58,VALID,0,VALID,87.2744,VALID,0.100563,VALID,26.683,VALID,23,VALID,0.826172,
2011-02-06, 01:03:04,VALID,1003.57,VALID,0,VALID,87.2591,VALID,0.100563,VALID,26.6809,VALID,14,VALID,1.40234,
2011-02-06, 01:04:04,VALID,1003.57,VALID,0,VALID,87.6863,VALID,0,VALID,26.6594,VALID,18,VALID,1.13047,
2011-02-06, 01:05:04,VALID,1003.57,VALID,0,VALID,87.0608,VALID,0.100563,VALID,26.6614,VALID,27,VALID,1.22734,
2011-02-06, 01:06:04,VALID,1003.59,VALID,0,VALID,87.3888,VALID,0.100563,VALID,26.642,VALID,16,VALID,0.614844,
2011-02-06, 01:07:04,VALID,1003.63,VALID,0,VALID,87.3888,VALID,0.100563,VALID,26.603,VALID,9,VALID,1.17617,
2011-02-06, 01:08:04,VALID,1003.61,VALID,0,VALID,87.4499,VALID,0.100563,VALID,26.603,VALID,19,VALID,1.18984,
2011-02-06, 01:09:04,VALID,1003.64,VALID,0,VALID,86.8624,VALID,0,VALID,26.601,VALID,22,VALID,1.08203,
2011-02-06, 01:10:04,VALID,1003.65,VALID,0,VALID,87.1523,VALID,0.100563,VALID,26.6614,VALID,25,VALID,1.15508,
2011-02-06, 01:11:04,VALID,1003.64,VALID,0,VALID,86.7327,VALID,0,VALID,26.6635,VALID,24,VALID,0.588672,
2011-02-06, 01:12:04,VALID,1003.64,VALID,0,VALID,87.0379,VALID,0,VALID,26.644,VALID,19,VALID,0.507422,
2011-02-06, 01:13:04,VALID,1003.63,VALID,0,VALID,87.0989,VALID,0,VALID,26.603,VALID,13,VALID,0.838281,
2011-02-06, 01:14:04,VALID,1003.64,VALID,0,VALID,87.6863,VALID,0,VALID,26.5855,VALID,12,VALID,0.5,
2011-02-06, 01:15:04,VALID,1003.61,VALID,0,VALID,88.4874,VALID,0,VALID,26.5271,VALID,68,VALID,0.431641,
2011-02-06, 01:16:04,VALID,1003.62,VALID,0,VALID,88.4874,VALID,0,VALID,26.4472,VALID,31,VALID,1.18711,
2011-02-06, 01:17:04,VALID,1003.64,VALID,0,VALID,89.2503,VALID,0,VALID,26.4102,VALID,15,VALID,0.753516,
2011-02-06, 01:18:04,VALID,1003.66,VALID,0,VALID,90.1352,VALID,0,VALID,26.2913,VALID,59,VALID,0.581641,
2011-02-06, 01:19:04,VALID,1003.65,VALID,0,VALID,91.0354,VALID,0,VALID,26.2369,VALID,60,VALID,0.260156,
2011-02-06, 01:20:04,VALID,1003.67,VALID,0,VALID,91.7831,VALID,0,VALID,26.0791,VALID,42,VALID,0.424219,
2011-02-06, 01:21:04,VALID,1003.67,VALID,0,VALID,92.2942,VALID,0,VALID,26.0012,VALID,14,VALID,0.511719,
2011-02-06, 01:22:04,VALID,1003.67,VALID,0,VALID,92.874,VALID,0,VALID,25.9642,VALID,14,VALID,0.402734,
2011-02-06, 01:23:04,VALID,1003.69,VALID,0,VALID,93.7055,VALID,0,VALID,25.8259,VALID,47,VALID,0.542578,
2011-02-06, 01:24:04,VALID,1003.66,VALID,0,VALID,93.6903,VALID,0,VALID,25.8064,VALID,46,VALID,0.307813,
2011-02-06, 01:25:04,VALID,1003.68,VALID,0,VALID,92.9503,VALID,0,VALID,25.8044,VALID,18,VALID,0.749609,
2011-02-06, 01:26:04,VALID,1003.62,VALID,0,VALID,92.668,VALID,0.100563,VALID,25.9018,VALID,49,VALID,0.637109,
2011-02-06, 01:27:04,VALID,1003.64,VALID,0,VALID,93.2249,VALID,0.100563,VALID,25.8843,VALID,68,VALID,0.275781,
2011-02-06, 01:28:04,VALID,1003.61,VALID,0,VALID,93.5758,VALID,0.100563,VALID,25.7655,VALID,51,VALID,0.66875,
2011-02-06, 01:29:04,VALID,1003.61,VALID,0,VALID,93.9039,VALID,0.100563,VALID,25.7655,VALID,39,VALID,0.304297,
2011-02-06, 01:30:04,VALID,1003.6,VALID,0,VALID,93.881,VALID,0.100563,VALID,25.746,VALID,358,VALID,0.975781,
2011-02-06, 01:31:04,VALID,1003.58,VALID,0,VALID,94.1251,VALID,0.100563,VALID,25.7246,VALID,47,VALID,0.340234,
2011-02-06, 01:32:04,VALID,1003.57,VALID,0,VALID,94.3464,VALID,0,VALID,25.7071,VALID,47,VALID,0.179688,
2011-02-06, 01:33:04,VALID,1003.56,VALID,0,VALID,94.4379,VALID,0,VALID,25.6681,VALID,47,VALID,0.210938,
2011-02-06, 01:34:04,VALID,1003.57,VALID,0,VALID,94.8346,VALID,0.100563,VALID,25.6292,VALID,47,VALID,0.264062,
2011-02-06, 01:35:04,VALID,1003.57,VALID,0,VALID,95.0558,VALID,0,VALID,25.5513,VALID,47,VALID,0.0316406,
2011-02-06, 01:36:04,VALID,1003.55,VALID,0,VALID,95.6356,VALID,0.100563,VALID,25.5123,VALID,47,VALID,0.438672,
2011-02-06, 01:37:04,VALID,1003.56,VALID,0,VALID,96.1163,VALID,0.100563,VALID,25.4539,VALID,47,VALID,0.300391,
2011-02-06, 01:38:04,VALID,1003.55,VALID,0,VALID,96.5969,VALID,0,VALID,25.3955,VALID,47,VALID,0.280469,
2011-02-06, 01:39:04,VALID,1003.57,VALID,0,VALID,97.1614,VALID,0.100563,VALID,25.376,VALID,47,VALID,0.311719,
2011-02-06, 01:40:04,VALID,1003.56,VALID,0,VALID,97.909,VALID,0.100563,VALID,25.2981,VALID,47,VALID,0.331641,
2011-02-06, 01:41:04,VALID,1003.54,VALID,0,VALID,99.5416,VALID,0.100563,VALID,25.2592,VALID,47,VALID,0.292969,
2011-02-06, 01:42:04,VALID,1003.51,VALID,0,VALID,102.906,VALID,0.100563,VALID,25.2007,VALID,47,VALID,0.107422,
2011-02-06, 01:43:04,VALID,1003.49,VALID,0,VALID,104,VALID,0.100563,VALID,25.121,VALID,47,VALID,0.158203,
2011-02-06, 01:44:04,VALID,1003.47,VALID,0,INVALID,110.474,VALID,0,VALID,25.082,VALID,47,VALID,0,
2011-02-06, 01:45:04,VALID,1003.49,VALID,0,INVALID,116.783,VALID,0,VALID,25.0839,VALID,47,VALID,0,
2011-02-06, 01:46:04,VALID,1003.45,VALID,0,INVALID,124.953,VALID,0.100563,VALID,25.045,VALID,47,VALID,0,
2011-02-06, 01:47:04,VALID,1003.46,VALID,0,INVALID,135.786,VALID,0.100563,VALID,25.0255,VALID,47,VALID,0,
2011-02-06, 01:48:04,VALID,1003.42,VALID,0,INVALID,147.527,VALID,0.100563,VALID,24.9847,VALID,32,VALID,0.675391,
2011-02-06, 01:49:04,VALID,1003.41,VALID,0,INVALID,142.454,VALID,0.100563,VALID,25.0644,VALID,32,VALID,0.553906,
2011-02-06, 01:50:04,VALID,1003.39,VALID,0,INVALID,132.201,VALID,0,VALID,25.0839,VALID,32,VALID,0.366016,
2011-02-06, 01:51:04,VALID,1003.37,VALID,0,INVALID,121.604,VALID,0.100563,VALID,25.1229,VALID,18,VALID,0.876172,
2011-02-06, 01:52:04,VALID,1003.4,VALID,0,VALID,104,VALID,0,VALID,25.2378,VALID,21,VALID,1.17695,
2011-02-06, 01:53:04,VALID,1003.38,VALID,0,VALID,100.144,VALID,0.100563,VALID,25.4344,VALID,20,VALID,0.987891,
2011-02-06, 01:54:04,VALID,1003.39,VALID,0,VALID,98.2829,VALID,0.100563,VALID,25.5513,VALID,21,VALID,0.824609,
2011-02-06, 01:55:04,VALID,1003.37,VALID,0,VALID,96.9783,VALID,0.100563,VALID,25.6077,VALID,14,VALID,0.920703,
2011-02-06, 01:56:04,VALID,1003.37,VALID,0,VALID,96.1926,VALID,0,VALID,25.6876,VALID,22,VALID,0.896875,
2011-02-06, 01:57:04,VALID,1003.39,VALID,0,VALID,95.5746,VALID,0,VALID,25.748,VALID,20,VALID,0.783594,
2011-02-06, 01:58:04,VALID,1003.35,VALID,0,VALID,95.361,VALID,0,VALID,25.785,VALID,5,VALID,0.698438,
2011-02-06, 01:59:04,VALID,1003.32,VALID,0,VALID,95.155,VALID,0,VALID,25.7869,VALID,15,VALID,0.353125,
2011-02-06, 02:00:04,VALID,1003.32,VALID,0,VALID,95.1703,VALID,0,VALID,25.785,VALID,28,VALID,0.319922,
2011-02-06, 02:01:04,VALID,1003.33,VALID,0,VALID,95.0253,VALID,0,VALID,25.8434,VALID,34,VALID,0.634375,
2011-02-06, 02:02:04,VALID,1003.32,VALID,0,VALID,94.7736,VALID,0,VALID,25.8239,VALID,40,VALID,0.370313,
2011-02-06, 02:03:04,VALID,1003.32,VALID,0,VALID,94.6897,VALID,0,VALID,25.8453,VALID,40,VALID,0.347656,
2011-02-06, 02:04:04,VALID,1003.3,VALID,0,VALID,94.9872,VALID,0,VALID,25.8453,VALID,29,VALID,0.978516,
2011-02-06, 02:05:04,VALID,1003.28,VALID,0,VALID,94.9948,VALID,0,VALID,25.8239,VALID,84,VALID,0.246094,
2011-02-06, 02:06:04,VALID,1003.3,VALID,0,VALID,94.949,VALID,0,VALID,25.8259,VALID,84,VALID,0.451953,
2011-02-06, 02:07:04,VALID,1003.28,VALID,0,VALID,94.9643,VALID,0,VALID,25.7674,VALID,51,VALID,0.6125,
2011-02-06, 02:08:04,VALID,1003.31,VALID,0,VALID,94.8117,VALID,0,VALID,25.8629,VALID,34,VALID,1.12305,
2011-02-06, 02:09:04,VALID,1003.29,VALID,0,VALID,94.209,VALID,0,VALID,25.9213,VALID,36,VALID,0.376172,
2011-02-06, 02:10:04,VALID,1003.29,VALID,0,VALID,93.9268,VALID,0,VALID,25.9408,VALID,36,VALID,0.408203,
2011-02-06, 02:11:04,VALID,1003.27,VALID,0,VALID,94.2396,VALID,0,VALID,25.9038,VALID,28,VALID,0.93125,
2011-02-06, 02:12:04,VALID,1003.27,VALID,0,VALID,94.2167,VALID,0,VALID,25.9018,VALID,16,VALID,2.01523,
2011-02-06, 02:13:04,VALID,1003.26,VALID,0,VALID,93.553,VALID,0,VALID,26.0206,VALID,16,VALID,1.02852,
2011-02-06, 02:14:04,VALID,1003.25,VALID,0,VALID,93.1868,VALID,0,VALID,26.0187,VALID,13,VALID,0.765234,
2011-02-06, 02:15:04,VALID,1003.25,VALID,0,VALID,92.4163,VALID,0,VALID,26.0966,VALID,360,VALID,1.25469,
2011-02-06, 02:16:04,VALID,1003.24,VALID,0,VALID,92.1874,VALID,0,VALID,26.157,VALID,80,VALID,0.564453,
2011-02-06, 02:17:04,VALID,1003.22,VALID,0,VALID,92.401,VALID,0,VALID,26.0576,VALID,78,VALID,0.580859,
2011-02-06, 02:18:04,VALID,1003.21,VALID,0,VALID,92.9961,VALID,0,VALID,25.9797,VALID,24,VALID,0.800391,
2011-02-06, 02:19:04,VALID,1003.2,VALID,0,VALID,93.6521,VALID,0,VALID,25.9038,VALID,18,VALID,0.945703,
2011-02-06, 02:20:04,VALID,1003.17,VALID,0,VALID,94.2014,VALID,0,VALID,25.8044,VALID,10,VALID,0.725391,
2011-02-06, 02:21:04,VALID,1003.13,VALID,0,VALID,94.0488,VALID,0,VALID,25.8259,VALID,12,VALID,1.30117,
2011-02-06, 02:22:04,VALID,1003.11,VALID,0,VALID,93.4843,VALID,0,VALID,25.9038,VALID,6,VALID,1.48828,
2011-02-06, 02:23:04,VALID,1003.08,VALID,0,VALID,92.1874,VALID,0,VALID,25.9622,VALID,11,VALID,1.59023,
2011-02-06, 02:24:04,VALID,1003.07,VALID,0,VALID,91.5695,VALID,0,VALID,25.9992,VALID,20,VALID,1.36914,
2011-02-06, 02:25:04,VALID,1003.06,VALID,0,VALID,91.0736,VALID,0,VALID,26.0576,VALID,20,VALID,1.58711,
2011-02-06, 02:26:04,VALID,1003.05,VALID,0,VALID,90.5014,VALID,0,VALID,26.0985,VALID,17,VALID,1.63828,
2011-02-06, 02:27:04,VALID,1003.07,VALID,0,VALID,90.448,VALID,0,VALID,26.0771,VALID,1,VALID,0.59375,
2011-02-06, 02:28:04,VALID,1003.05,VALID,0,VALID,90.5548,VALID,0,VALID,26.1005,VALID,41,VALID,0.597656,
2011-02-06, 02:29:04,VALID,1003.01,VALID,0,VALID,89.8377,VALID,0,VALID,26.0187,VALID,19,VALID,2.04414,
2011-02-06, 02:30:04,VALID,1003.01,VALID,0,VALID,89.5249,VALID,0,VALID,26.118,VALID,61,VALID,0.856641,
2011-02-06, 02:31:04,VALID,1002.99,VALID,0,VALID,89.7767,VALID,0,VALID,26.0771,VALID,24,VALID,0.633203,
2011-02-06, 02:32:04,VALID,1002.95,VALID,0,VALID,89.8072,VALID,0,VALID,26.0381,VALID,13,VALID,1.14102,
2011-02-06, 02:33:04,VALID,1002.95,VALID,0,VALID,89.9826,VALID,0,VALID,26.0791,VALID,13,VALID,0.894531,
2011-02-06, 02:34:04,VALID,1002.96,VALID,0,VALID,89.9979,VALID,0,VALID,26.0226,VALID,22,VALID,1.14023,
2011-02-06, 02:35:04,VALID,1002.98,VALID,0,VALID,90.2954,VALID,0,VALID,25.9817,VALID,26,VALID,1.37969,
2011-02-06, 02:36:04,VALID,1002.96,VALID,0,VALID,90.0589,VALID,0,VALID,25.9817,VALID,25,VALID,0.755859,
2011-02-06, 02:37:04,VALID,1002.95,VALID,0,VALID,89.6088,VALID,0,VALID,25.9817,VALID,36,VALID,0.837109,
2011-02-06, 02:38:04,VALID,1002.93,VALID,0,VALID,90.0894,VALID,0,VALID,25.9817,VALID,26,VALID,0.564844,
2011-02-06, 02:39:04,VALID,1002.92,VALID,0,VALID,89.769,VALID,0,VALID,25.9408,VALID,38,VALID,0.738281,
2011-02-06, 02:40:04,VALID,1002.93,VALID,0,VALID,89.9826,VALID,0,VALID,25.9622,VALID,29,VALID,0.583984,
2011-02-06, 02:41:04,VALID,1002.95,VALID,0,VALID,89.4944,VALID,0,VALID,25.9018,VALID,30,VALID,0.482031,
2011-02-06, 02:42:04,VALID,1002.93,VALID,0,VALID,89.6699,VALID,0,VALID,25.9252,VALID,30,VALID,0.650781,
2011-02-06, 02:43:04,VALID,1002.96,VALID,0,VALID,90.0055,VALID,0,VALID,25.8453,VALID,31,VALID,0.594531,
2011-02-06, 02:44:04,VALID,1002.97,VALID,0,VALID,90.0132,VALID,0,VALID,25.7869,VALID,34,VALID,0.629687,
2011-02-06, 02:45:04,VALID,1002.96,VALID,0,VALID,90.1734,VALID,0,VALID,25.8064,VALID,17,VALID,0.841797,
2011-02-06, 02:46:04,VALID,1002.95,VALID,0,VALID,90.715,VALID,0,VALID,25.7674,VALID,21,VALID,1.0332,
2011-02-06, 02:47:04,VALID,1002.96,VALID,0,VALID,91.0278,VALID,0,VALID,25.746,VALID,32,VALID,0.73125,
2011-02-06, 02:48:04,VALID,1002.97,VALID,0,VALID,91.0125,VALID,0,VALID,25.7694,VALID,26,VALID,1.18672,
2011-02-06, 02:49:04,VALID,1002.94,VALID,0,VALID,90.921,VALID,0,VALID,25.748,VALID,30,VALID,1.01992,
2011-02-06, 02:50:04,VALID,1002.93,VALID,0,VALID,90.7684,VALID,0,VALID,25.748,VALID,40,VALID,0.955078,
2011-02-06, 02:51:04,VALID,1002.94,VALID,0,VALID,91.0507,VALID,0,VALID,25.7674,VALID,31,VALID,1.10625,
2011-02-06, 02:52:04,VALID,1002.91,VALID,0,VALID,90.9286,VALID,0,VALID,25.748,VALID,32,VALID,0.446094,
2011-02-06, 02:53:04,VALID,1002.93,VALID,0,VALID,91.5237,VALID,0,VALID,25.7285,VALID,73,VALID,0.569922,
2011-02-06, 02:54:04,VALID,1002.91,VALID,0,VALID,91.5618,VALID,0,VALID,25.6486,VALID,25,VALID,0.727734,
2011-02-06, 02:55:04,VALID,1002.9,VALID,0,VALID,91.3711,VALID,0,VALID,25.67,VALID,27,VALID,0.515234,
2011-02-06, 02:56:04,VALID,1002.87,VALID,0,VALID,91.1956,VALID,0,VALID,25.6895,VALID,66,VALID,0.509375,
2011-02-06, 02:57:04,VALID,1002.86,VALID,0,VALID,91.4932,VALID,0,VALID,25.67,VALID,86,VALID,0.483594,
2011-02-06, 02:58:04,VALID,1002.89,VALID,0,VALID,91.9128,VALID,0,VALID,25.6311,VALID,37,VALID,0.615625,
2011-02-06, 02:59:04,VALID,1002.92,VALID,0,VALID,92.0958,VALID,0,VALID,25.5921,VALID,7,VALID,0.190625,
2011-02-06, 03:00:04,VALID,1002.88,VALID,0,VALID,92.0653,VALID,0,VALID,25.5513,VALID,7,VALID,0.107031,
2011-02-06, 03:01:04,VALID,1002.9,VALID,0,VALID,92.3934,VALID,0,VALID,25.5123,VALID,8,VALID,0.595312,
2011-02-06, 03:02:04,VALID,1002.88,VALID,0,VALID,92.195,VALID,0,VALID,25.5727,VALID,24,VALID,0.379687,
2011-02-06, 03:03:04,VALID,1002.86,VALID,0,VALID,91.9204,VALID,0,VALID,25.5707,VALID,39,VALID,0.358984,
2011-02-06, 03:04:04,VALID,1002.86,VALID,0,VALID,92.0119,VALID,0,VALID,25.5727,VALID,39,VALID,0.0753906,
2011-02-06, 03:05:04,VALID,1002.84,VALID,0,VALID,92.3476,VALID,0,VALID,25.5318,VALID,39,VALID,0.0539063,
2011-02-06, 03:06:04,VALID,1002.82,VALID,0,VALID,92.3247,VALID,0,VALID,25.5142,VALID,39,VALID,0.046875,
2011-02-06, 03:07:04,VALID,1002.83,VALID,0,VALID,92.5993,VALID,0,VALID,25.4539,VALID,43,VALID,0.427734,
2011-02-06, 03:08:04,VALID,1002.79,VALID,0,VALID,92.8206,VALID,0,VALID,25.4967,VALID,54,VALID,0.151172,
2011-02-06, 03:09:04,VALID,1002.8,VALID,0,VALID,93.1715,VALID,0,VALID,25.4344,VALID,44,VALID,0.507422,
2011-02-06, 03:10:04,VALID,1002.81,VALID,0,VALID,93.4843,VALID,0,VALID,25.376,VALID,44,VALID,0.249609,
2011-02-06, 03:11:04,VALID,1002.77,VALID,0,VALID,93.6903,VALID,0,VALID,25.3584,VALID,44,VALID,0.340234,
2011-02-06, 03:12:04,VALID,1002.77,VALID,0,VALID,93.9725,VALID,0,VALID,25.3195,VALID,44,VALID,0.486328,
2011-02-06, 03:13:04,VALID,1002.8,VALID,0,VALID,94.0031,VALID,0,VALID,25.3,VALID,40,VALID,0.601172,
2011-02-06, 03:14:04,VALID,1002.74,VALID,0,VALID,93.9344,VALID,0,VALID,25.3195,VALID,36,VALID,0.232812,
2011-02-06, 03:15:04,VALID,1002.76,VALID,0,VALID,93.8505,VALID,0,VALID,25.2981,VALID,38,VALID,0.763672,
2011-02-06, 03:16:04,VALID,1002.73,VALID,0,VALID,93.7513,VALID,0,VALID,25.339,VALID,27,VALID,0.6625,
2011-02-06, 03:17:04,VALID,1002.75,VALID,0,VALID,93.5072,VALID,0,VALID,25.2806,VALID,26,VALID,0.532812,
2011-02-06, 03:18:04,VALID,1002.73,VALID,0,VALID,93.5377,VALID,0,VALID,25.3195,VALID,35,VALID,0.478516,
2011-02-06, 03:19:04,VALID,1002.72,VALID,0,VALID,93.553,VALID,0,VALID,25.3195,VALID,22,VALID,0.928516,
2011-02-06, 03:20:04,VALID,1002.68,VALID,0,VALID,91.9967,VALID,0,VALID,25.4558,VALID,21,VALID,0.695313,
2011-02-06, 03:21:04,VALID,1002.7,VALID,0,VALID,91.4779,VALID,0,VALID,25.5707,VALID,42,VALID,0.654688,
2011-02-06, 03:22:04,VALID,1002.71,VALID,0,VALID,91.2719,VALID,0,VALID,25.5707,VALID,39,VALID,0.858203,
2011-02-06, 03:23:04,VALID,1002.76,VALID,0,VALID,90.8447,VALID,0,VALID,25.5707,VALID,50,VALID,0.7625,
2011-02-06, 03:24:04,VALID,1002.77,VALID,0,VALID,90.5319,VALID,0,VALID,25.6292,VALID,24,VALID,0.392969,
2011-02-06, 03:25:04,VALID,1002.73,VALID,0,VALID,90.2497,VALID,0,VALID,25.6506,VALID,17,VALID,0.575,
2011-02-06, 03:26:04,VALID,1002.75,VALID,0,VALID,89.4486,VALID,0,VALID,25.6895,VALID,35,VALID,0.754687,
2011-02-06, 03:27:04,VALID,1002.74,VALID,0,VALID,89.3037,VALID,0,VALID,25.748,VALID,44,VALID,0.83125,
2011-02-06, 03:28:04,VALID,1002.75,VALID,0,VALID,88.0983,VALID,0,VALID,25.8453,VALID,44,VALID,0.648438,
2011-02-06, 03:29:04,VALID,1002.78,VALID,0,VALID,88.2738,VALID,0,VALID,25.9018,VALID,20,VALID,1.03125,
2011-02-06, 03:30:04,VALID,1002.79,VALID,0,VALID,87.3583,VALID,0,VALID,25.9408,VALID,26,VALID,1.22383,
2011-02-06, 03:31:04,VALID,1002.79,VALID,0,VALID,87.4651,VALID,0,VALID,25.9602,VALID,40,VALID,0.296875,
2011-02-06, 03:32:04,VALID,1002.78,VALID,0,VALID,87.5872,VALID,0,VALID,25.9817,VALID,40,VALID,0.335938,
2011-02-06, 03:33:04,VALID,1002.77,VALID,0,VALID,87.5567,VALID,0,VALID,25.9018,VALID,39,VALID,0.214453,
2011-02-06, 03:34:04,VALID,1002.74,VALID,0,VALID,87.7779,VALID,0,VALID,25.9018,VALID,28,VALID,0.680859,
2011-02-06, 03:35:04,VALID,1002.74,VALID,0,VALID,88.1899,VALID,0,VALID,25.8843,VALID,28,VALID,0.35625,
2011-02-06, 03:36:04,VALID,1002.76,VALID,0,VALID,88.2738,VALID,0,VALID,25.8453,VALID,31,VALID,0.910156,
2011-02-06, 03:37:04,VALID,1002.78,VALID,0,VALID,88.64,VALID,0,VALID,25.8843,VALID,26,VALID,0.940234,
2011-02-06, 03:38:04,VALID,1002.78,VALID,0,VALID,88.64,VALID,0,VALID,25.9038,VALID,344,VALID,0.928516,
2011-02-06, 03:39:04,VALID,1002.76,VALID,0,VALID,88.6934,VALID,0,VALID,25.9018,VALID,13,VALID,0.678125,
2011-02-06, 03:40:04,VALID,1002.73,VALID,0,VALID,89.0443,VALID,0,VALID,25.8629,VALID,23,VALID,0.74375,
2011-02-06, 03:41:04,VALID,1002.75,VALID,0,VALID,89.2579,VALID,0,VALID,25.8823,VALID,29,VALID,0.460156,
2011-02-06, 03:42:04,VALID,1002.77,VALID,0,VALID,89.5478,VALID,0,VALID,25.8823,VALID,22,VALID,0.361328,
2011-02-06, 03:43:04,VALID,1002.73,VALID,0,VALID,89.7843,VALID,0,VALID,25.8629,VALID,356,VALID,1.1207,
2011-02-06, 03:44:04,VALID,1002.74,VALID,0,VALID,89.975,VALID,0,VALID,25.8629,VALID,72,VALID,0.328125,